Regional Weather Roundup
Issued by NWS

Home | Current Version | Previous Version | Text Only | Print | Product List | Glossary Off
Versions: 1 2 3 4 5 6 7 8 9 10 11 12 13 14 15 16 17 18 19 20 21 22 23 24 25 26 27 28 29 30 31 32 33 34 35 36 37 38 39 40 41 42 43 44 45 46 47 48 49 50

345
ASUS43 KMPX 061410
RWRMN
WEATHER ROUNDUP FOR MINNESOTA
NATIONAL WEATHER SERVICE TWIN CITIES/CHANHASSEN MN
900 AM CDT FRI MAY 06 2016


NOTE: "FAIR" INDICATES FEW OR NO CLOUDS BELOW 12,000 FEET WITH NO
SIGNIFICANT WEATHER AND/OR OBSTRUCTIONS TO VISIBILITY. N/A MEANS
CURRENT SKY AND/OR WEATHER CONDITIONS ARE NOT AVAILABLE.

MNZ060>063-068>070-061500-
   Twin Cities Metro

CITY           SKY/WX    TMP DP  RH WIND       PRES   REMARKS
TWIN CITIES    MOSUNNY   69  44  40 SW12      29.87
ST PAUL        SUNNY     69  47  45 VRB6      29.87
CRYSTAL        SUNNY     72  46  39 SW10      29.85
BLAINE         SUNNY     73  46  38 SW7       29.85F
EDEN PRAIRIE   SUNNY     67  45  45 SW7       29.86
SOUTH ST PAUL  SUNNY     70  44  39 W6        29.87S
LAKE ELMO      FAIR      70  48  46 SW9       29.87F
$$
MNZ001>005-007-008-013>017-022>024-027-028-061500-
   Northwest Minnesota

CITY           SKY/WX    TMP DP  RH WIND       PRES   REMARKS
BEMIDJI        SUNNY     74  47  39 W8        29.75S
HALLOCK        MOSUNNY   66  45  45 NW22G33   29.73R
ROSEAU         MOSUNNY   72  48  43 W12G17    29.68S
WARROAD        PTSUNNY   72  52  49 W16       29.67R
THIEF RVR FALL PTSUNNY   68  45  42 SW10      29.73
CROOKSTON      CLOUDY    70  48  46 SW8       29.74R
FOSSTON        SUNNY     68  45  42 S16       29.74F
DETROIT LAKES  SUNNY     72  46  40 SW10      29.77F
MOORHEAD       SUNNY     70  46  43 SW9       29.76S
PARK RAPIDS    SUNNY     73  46  38 W9        29.76
MAHNOMEN       FAIR      71  47  42 SW12      29.76S
$$
MNZ006-009>011-018-025>026-061500-
   North Central Minnesota

CITY           SKY/WX    TMP DP  RH WIND       PRES   REMARKS
BAUDETTE       CLOUDY    72  45  37 W9        29.66
FLAG ISLAND    MOSUNNY   70  43  37 W15       29.63R
INTL FALLS     MOSUNNY   73  46  38 SW10G16   29.66
WASKISH        CLOUDY    72  48  43 SW13      29.71S
BIG FORK       SUNNY     75  45  33 SW12G20   29.73F
LONGVILLE      SUNNY     73  45  35 SW7       29.76F
GRAND RAPIDS   SUNNY     73  43  33 W9G17     29.78
CRANE LAKE     MOSUNNY   73  43  33 SW8       29.71F
ORR            SUNNY     75  39  27 SW7       29.70S
COOK           SUNNY     73  45  35 W10       29.74S
WALKER         FAIR      73  46  38 SW10G16   29.75F
$$
MNZ012-019>021-037-061500-
   Northeast Minnesota

CITY           SKY/WX    TMP DP  RH WIND       PRES   REMARKS
DULUTH         SUNNY     76  44  32 W13       29.78
ELY            SUNNY     73  43  33 SW9       29.74F
HIBBING        SUNNY     74  43  32 W8G17     29.75
EVELETH        SUNNY     72  43  35 SW9       29.77S
DULUTH HARBOR  SUNNY     72  48  43 SW8       29.76F
TWO HARBORS    SUNNY     81  52  36 W9G20     29.73F
SILVER BAY     SUNNY     79  43  27 W10G18    29.72F
GRAND MARAIS     N/A     45  36  70 NE6       29.75F
G MARAIS ARPRT SUNNY     73  39  29 W8        29.76S
$$
MNZ029>031-032-039>041-046>048-054>057-064-061500-
   West Central Minnesota

CITY           SKY/WX    TMP DP  RH WIND       PRES   REMARKS
FERGUS FALLS   SUNNY     70  48  46 S9        29.75F
WHEATON        SUNNY     75  52  43 S10       29.78F
MORRIS         SUNNY     72  48  43 S9        29.79S
ALEXANDRIA     SUNNY     70  46  42 SW15      29.82
ELBOW LAKE     FAIR      69  49  49 S9        29.80S
WADENA         SUNNY     73  48  40 SW10      29.78F
GLENWOOD       SUNNY     70  46  43 SW16      29.82F
APPLETON       SUNNY     73  48  40 SW13      29.79F
BENSON         SUNNY     68  45  42 SW9       29.81F
ORTONVILLE     SUNNY     72  48  43 SW10      29.78F
MADISON        SUNNY     73  48  40 SW23G30   29.78F
WILLMAR        FAIR      72  48  43 SW7G18    29.84F
$$
MNZ033>034-036-042>043-049>051-058-059-061500-
   Central Minnesota

CITY           SKY/WX    TMP DP  RH WIND       PRES   REMARKS
ST CLOUD       SUNNY     71  45  39 SW8       29.83
SAUK CENTRE      N/A     70  48  44 SW10      29.82F
PAYNESVILLE    SUNNY     70  44  39 SW8       29.84F
AITKIN         SUNNY     77  37  24 SW9       29.77F
PINE RIVER     SUNNY     73  50  43 SW9       29.80F
BRAINERD       SUNNY     71  45  39 SW9       29.80
STAPLES        SUNNY     73  45  35 SW9       29.79F
LONG PRAIRIE   FAIR      68  46  45 S9        29.82F
LITTLE FALLS   SUNNY     70  43  37 SW7       29.81F
LITCHFIELD     SUNNY     72  46  40 SW8       29.86S
BUFFALO        SUNNY     67  45  44 SW8       29.87S
MAPLE LAKE     SUNNY     70  49  47 S5        29.86S
HUTCHINSON     MOSUNNY   70  48  45 SW6       29.87F
$$
MNZ037-044-045-052-053-061500-
   East Central Minnesota

CITY           SKY/WX    TMP DP  RH WIND       PRES   REMARKS
PRINCETON      SUNNY     73  45  35 SW9       29.83F
MORA           SUNNY     64  43  45 W7        29.84F
CAMBRIDGE      SUNNY     73  52  46 S6        29.82S
RUSH CITY      SUNNY     70  44  39 SW7       29.83F
MOOSE LAKE     SUNNY     73  45  35 SW9       29.79S
HINCKLEY       CLOUDY    70  48  46 SW7       29.82S
CLOQUET        SUNNY     75  39  27 W14       29.78F
MCGREGOR       SUNNY     72  45  37 SW8       29.79F
$$
MNZ071>073-080-081-089-090-097-098-061500-
   Southwest Minnesota

CITY           SKY/WX    TMP DP  RH WIND       PRES   REMARKS
MONTEVIDEO     SUNNY     73  50  43 W9G16     29.83F
GRANITE FALLS  SUNNY     75  49  40 SW20      29.84F
CANBY          SUNNY     73  51  45 SW18G29   29.82S
MARSHALL       SUNNY     72  48  42 SW24      29.83
REDWOOD FALLS  SUNNY     73  46  38 SW17G23   29.85
OLIVIA         MOSUNNY   70  46  43 SW13      29.84F
PIPESTONE      SUNNY     64  48  55 SW13      29.90F
WINDOM         SUNNY     70  45  40 SW18      29.90F
WORTHINGTON    SUNNY     69  46  43 SW22G32   29.92
JACKSON        SUNNY     66  41  39 SW15      29.93F
TRACY          SUNNY     70  48  44 SW20G28   29.87F
SLAYTON        MOSUNNY   66  44  44 SW22G29   29.90S
$$
MNZ065>067-074>077-082>085-091>093-061500-
   South Central Minnesota

CITY           SKY/WX    TMP DP  RH WIND       PRES   REMARKS
MANKATO        SUNNY     70  45  40 SW16      29.90
NEW ULM        SUNNY     68  46  45 SW13      29.87F
ST JAMES       SUNNY     66  43  42 SW17G25   29.90F
FAIRMONT       SUNNY     68  43  40 SW16G24   29.92
GLENCOE        SUNNY     71  50  46 SW8       29.86F
FARIBAULT      SUNNY     66  46  48 SW7       29.91S
OWATONNA       SUNNY     70  43  37 SW10G20   29.92S
WASECA         SUNNY     68  46  45 SW12G17   29.93F
ALBERT LEA     SUNNY     70  45  40 W8        29.94S
$$
MNZ078>079-086>088-094>096-061500-
   Southeast Minnesota

CITY           SKY/WX    TMP DP  RH WIND       PRES   REMARKS
ROCHESTER      SUNNY     71  46  40 W15       29.93
RED WING       SUNNY     72  43  35 W7        29.87F
STANTON        SUNNY     70  45  41 SW12      29.89S
DODGE CENTER   SUNNY     72  45  37 W14       29.92F
WINONA         SUNNY     61  46  59 CALM      29.90S
AUSTIN         SUNNY     70  45  40 W12       29.94S
PRESTON        SUNNY     70  44  39 W15       29.94S
$$
ABBREVIATIONS USED IN REMARKS
   TC - TEMPERATURES IN CELSIUS
  WCI - WIND CHILL INDEX
   HX - HEAT INDEX
  VSB - VISIBILITY
$$




USA.gov is the U.S. government's official web portal to all federal, state and local government web resources and services.